User: anonymous   Login
Location: *
(44.1392°N, 4.8079°E)
Time: 22:21:59
(UTC+00:00)
Language:

NOSS 2-2 (C) - Orbit

View from above orbital plane
View from above orbital plane
View from above satellite
View from above satellite

Ground track
Ground track

The orbit data is extracted from the following two-line orbital elements,

1 21799U 91076C   21228.85878849 0.00000600  00000-0  96969-4 0    05
2 21799  63.3219 119.3779 0868199  44.5815 315.4185 13.41551676    05
Epoch (UTC): 16 August 2021 20:36:39
Eccentricity: 0.0868199
inclination: 63.3219°
perigee height: 454 km
apogee height: 1753 km
right ascension of ascending node: 119.3779°
argument of perigee: 44.5815°
revolutions per day: 13.41551676
mean anomaly at epoch: 315.4185°
orbit number at epoch: 0

The dashed part of the orbit path shows where the satellite is in the earth's shadow,  

DLR